Starlink 3871

operational
NORAD ID: 52496 Int'l Des: 2022-049 Owner: SPXS Country: US Constellation: starlink
LEOCIRCULAR

About Starlink 3871

Description loading...

Live Position

Loading 3D Globe...

Upcoming Passes

Altitude History

Altitude vs Time

uPlot chart will show altitude changes over time

Two-Line Element Set

1 52496U 22049AX 25259.83220112 .00000186 00000-0 29784-4 0 9994
2 52496 53.2166 104.5967 0001435 88.5473 271.5683 15.08838567186212
Epoch: Sep 16, 2025 • Age: 29 hours

Current Status

Altitude 539.7 km
Velocity 7.59 km/s
Sub-Earth Point 9.84°N, 105.45°W
Launch Date May 6, 2022
Age 3.3 years
Type internet

Technical Details

Classification Payload
Mass 297.00 kg
Dry Mass 220.00 kg
Total Mass 297.00 kg
Length 0.20 m
Diameter 2.80 m
Span 9.00 m
Shape Box + pan
Manufacturer SPXS
Bus Type Starlink
Phase Status In Orbit
Owner/State SPXS/US

Large Constellations

Loading constellations...